Presure
185 199 277 290 314 413 223 229 245 193 224 217 118 156 209 140 195 205 91 107 210 209 170 212 213 116 156 201 144 154 133 150 200 125 133 133 124 136
178 205 233 211 280 289 326 300 181 238 264 248 231 189 236 91 92 223 92 92 109 132 153 151 144 163 132 120 154 123 131 126 154 130 156 161 127 271
261 253 190 209 261 273 281 303 350 222 231 278 213 243 199 135 201 130 97 132 116 112 102 145 216 223 196 219 223 188 217 127 140 102 145 142 260 123
262 175 235 191 231 229 265 274 286 204 267 364 287 288 260 125 90 244 92 95 230 168 229 231 111 186 224 218 226 231 145 232 242 246 278 247 117 307
263 263 168 248 232 179 199 265 269 129 304 350 345 319 339 283 257 192 245 127 125 234 235 244 143 241 239 208 121 208 172 232 242 123 274 302 173 281
263 251 289 238 172 257 201 185 246 269 272 288 330 344 323 324 330 317 291 284 277 294 270 271 259 249 246 247 254 252 274 242 281 302 281 270 238 284
272 248 265 277 275 245 267 202 236 194 203 266 274 308 310 342 326 309 303 301 297 288 279 272 270 266 270 272 266 242 288 289 287 269 258 249 197 326
279 157 206 323 282 274 264 275 219 225 228 198 257 262 284 296 292 313 327 316 309 300 279 267 278 275 231 242 302 277 307 271 254 250 246 252 249 277
199 198 298 248 157 285 271 263 275 215 185 224 230 185 259 264 329 318 304 263 292 289 250 247 247 246 270 265 285 288 264 246 252 250 242 236 255 264
349 303 290 279 308 245 196 274 225 271 243 184 226 233 215 220 253 263 273 342 343 347 366 326 325 310 303 295 268 260 249 241 242 226 235 247 253 260
280 288 336 316 280 286 286 257 273 259 244 258 210 218 228 236 231 247 254 263 265 285 298 297 289 285 262 258 250 250 253 239 229 245 249 245 237 241
272 284 288 292 324 290 227 288 273 267 267 242 266 235 212 204 237 228 231 230 233 257 259 254 171 257 252 247 240 244 238 232 234 243 237 239 239 238
314 297 184 303 264 298 320 293 279 269 271 251 267 220 248 215 211 237 212 192 224 222 215 243 240 251 230 231 242 236 231 229 240 243 237 239 232 225
401 283 327 260 281 287 306 312 278 289 266 277 267 257 212 211 240 214 234 183 217 212 208 243 236 237 203 232 228 238 227 236 245 229 233 233 230 228
418 399 333 327 280 322 279 303 311 313 305 284 289 275 269 247 257 234 204 198 196 196 186 186 189 210 235 228 235 238 238 237 229 234 227 224 219 224
485 435 402 380 341 312 325 305 289 305 259 313 294 290 265 272 260 220 240 246 228 221 188 189 235 237 188 237 236 226 185 226 217 227 223 223 227 228
478 491 430 405 310 278 303 317 322 286 293 293 279 298 299 268 272 263 256 243 235 246 216 211 207 215 224 208 208 194 204 213 215 217 215 220 236 227
496 507 496 485 406 388 311 283 279 304 316 279 278 289 297 310 286 275 265 259 248 243 243 246 235 209 204 202 204 203 210 210 219 215 219 223 216 222
459 519 500 478 469 447 399 381 347 271 304 315 294 287 314 291 295 302 279 269 256 260 241 239 243 243 241 244 245 230 233 234 227 231 214 216 229 218
371 122 354 471 461 451 431 394 380 370 293 294 314 306 306 307 309 295 319 285 269 250 251 256 256 242 236 232 225 245 241 239 217 220 226 234 235 220
439 470 463 453 448 461 442 415 393 384 381 353 287 305 307 302 308 308 308 294 290 273 264 250 246 250 245 245 249 246 242 240 239 240 233 236 236 239
447 530 449 468 453 452 453 434 416 378 377 377 371 287 298 311 292 317 320 300 294 322 292 277 267 261 259 248 239 245 246 238 238 238 245 245 243 235
499 449 449 446 447 449 441 451 448 367 364 363 362 360 352 346 339 330 322 324 317 292 323 324 278 287 287 266 259 254 249 249 248 242 243 239 236 232
Wind_Speed
59 60 58 54 49 63 93 103 120 93 104 100 52 69 97 65 87 92 35 44 93 91 70 89 85 44 62 74 53 59 47 51 68 39 43 42 39 40
61 65 67 54 58 57 59 71 74 93 123 121 111 85 118 38 38 108 40 43 48 59 62 62 59 66 54 51 60 48 49 47 55 48 55 55 44 83
68 69 62 65 68 62 55 56 67 54 90 112 88 106 89 62 94 53 46 61 53 51 52 61 92 88 77 82 83 72 80 49 51 44 50 50 78 44
73 65 71 67 74 69 69 61 58 78 74 74 109 115 115 63 47 106 50 53 101 77 102 99 54 79 87 83 85 85 57 82 84 81 81 78 50 69
76 76 66 71 76 62 65 71 67 54 56 66 74 82 87 107 105 84 100 64 64 101 102 102 66 96 94 81 55 77 67 79 75 53 75 65 58 62
85 76 71 73 63 81 72 64 74 66 63 55 61 70 78 86 90 96 107 106 105 98 100 94 94 95 93 91 89 84 82 74 72 62 55 54 56 55
80 83 81 79 83 77 83 74 78 66 67 62 58 60 63 70 79 83 86 89 92 93 92 92 90 87 86 81 80 74 71 62 50 49 51 55 54 45
75 62 73 78 86 86 83 83 76 77 76 66 66 63 60 61 61 64 69 77 82 85 84 81 81 79 71 71 68 62 48 47 51 50 51 49 51 42
81 79 82 80 57 88 88 84 83 77 70 76 75 66 66 61 51 56 59 68 64 68 66 69 68 67 64 63 56 45 46 53 48 47 47 49 45 42
75 72 76 83 80 85 72 87 76 84 83 70 75 79 72 65 62 56 52 49 51 52 46 50 51 49 47 44 45 46 49 49 46 52 48 44 40 38
72 74 76 77 87 81 88 85 87 83 83 86 77 77 75 74 70 63 58 51 52 47 40 42 45 43 46 47 49 48 44 46 51 42 41 41 44 42
79 77 78 76 81 87 70 87 89 86 89 86 87 83 76 73 76 72 68 62 61 52 48 48 49 50 50 49 50 47 48 48 46 43 44 42 41 41
85 86 65 82 90 83 83 87 90 92 91 86 90 82 86 80 73 76 67 62 64 64 58 51 55 52 56 56 48 50 52 50 44 44 45 43 44 43
82 85 89 90 84 85 84 86 92 91 93 92 90 90 81 83 85 75 76 60 69 66 57 58 60 57 50 56 56 51 54 47 46 46 45 44 45 44
77 79 86 89 85 87 85 87 88 86 92 94 95 97 97 90 90 82 75 74 66 64 54 53 56 58 57 56 54 54 52 50 46 47 48 48 50 48
60 71 76 83 91 87 88 88 87 87 82 87 92 98 93 95 92 76 84 82 78 71 64 65 64 63 54 59 56 51 54 50 54 49 50 50 49 48
59 58 63 72 81 83 85 87 87 88 86 88 89 92 96 92 97 94 92 86 80 81 74 73 74 67 59 63 65 67 66 58 57 54 57 56 55 52
45 46 46 48 66 72 80 82 79 85 87 89 88 89 91 93 99 99 96 93 89 83 81 81 77 75 75 73 72 71 65 65 59 60 56 55 57 56
42 37 39 43 47 52 67 75 85 79 85 86 89 87 88 91 92 97 101 98 92 94 84 79 80 78 76 76 75 67 68 69 65 64 65 62 61 61
36 33 33 39 42 44 49 63 71 77 81 81 84 86 85 87 88 90 89 100 95 88 88 90 90 82 77 72 69 79 75 74 68 66 65 67 66 62
32 30 33 35 37 37 41 47 57 62 66 76 77 81 82 83 85 86 88 91 96 97 94 89 86 86 83 82 84 83 80 78 76 76 71 71 70 70
27 26 30 29 32 33 34 40 44 53 55 58 62 75 78 80 78 81 82 85 88 85 96 97 95 92 89 85 81 81 83 78 77 76 78 77 75 71
20 26 27 27 28 29 31 32 34 47 49 52 55 58 63 66 68 70 74 75 78 82 77 81 91 94 95 92 91 87 84 84 82 81 80 76 75 73
Wind_Direction
265 262 241 242 254 252 243 244 244 247 243 242 243 248 248 256 251 252 273 273 259 261 258 265 266 265 261 269 260 261 263 265 271 270 269 269 272 268
262 257 249 244 238 242 253 250 252 245 245 244 242 247 248 272 273 253 273 274 268 266 256 256 257 261 260 264 262 263 260 264 266 265 271 272 265 281
250 246 253 252 243 241 244 252 251 258 249 249 253 248 250 261 248 251 267 264 253 259 270 259 263 264 263 266 269 267 271 262 262 276 264 264 281 266
254 261 250 257 249 248 241 241 248 248 249 247 248 249 247 252 274 249 276 275 253 258 261 262 261 265 262 264 268 270 261 276 277 278 280 278 269 281
255 254 261 248 245 254 252 240 240 257 248 246 246 248 247 249 250 254 250 266 267 254 258 262 260 261 263 264 253 269 267 271 275 260 279 278 269 280
254 256 249 249 258 245 249 253 244 240 241 247 249 247 248 250 250 251 254 255 257 256 256 255 255 257 261 264 267 269 273 271 274 274 272 274 274 280
255 253 253 244 243 245 242 249 246 252 251 240 246 252 250 249 249 251 253 254 255 255 254 255 256 259 261 263 265 265 268 270 264 266 269 275 273 282
247 267 258 245 241 242 241 239 243 245 246 251 241 244 250 250 249 251 251 252 254 256 256 257 258 258 256 258 259 261 256 254 259 263 267 274 276 281
261 264 251 252 260 238 240 240 238 245 257 246 246 255 244 247 249 250 250 252 252 254 253 256 255 256 252 254 250 243 245 253 256 260 264 268 275 283
252 251 251 239 241 242 255 239 246 238 240 255 243 246 249 249 244 246 246 246 247 249 247 243 244 243 240 233 238 240 246 251 253 260 261 267 274 281
249 246 245 243 237 240 236 242 239 239 239 238 241 244 245 246 248 243 242 241 242 241 236 232 233 229 233 236 242 244 246 250 255 259 263 265 267 271
244 245 244 243 243 237 242 234 237 238 238 239 235 240 244 248 244 246 246 245 246 240 234 234 246 232 232 235 240 243 246 247 253 262 262 265 267 271
247 242 255 241 240 240 241 233 233 237 235 238 236 243 238 244 246 241 247 253 246 250 251 236 238 235 240 241 242 244 248 248 257 261 260 266 265 267
249 243 241 240 240 238 238 237 235 232 239 234 235 237 248 248 239 244 241 253 246 250 249 234 239 240 250 240 243 248 247 251 259 254 259 262 264 266
250 245 243 240 239 237 239 235 236 235 233 233 231 232 234 236 236 240 248 250 253 253 249 251 255 249 244 245 248 251 253 254 253 259 257 259 261 267
257 249 244 242 237 238 236 233 235 235 238 234 232 231 234 234 234 242 241 240 243 241 257 259 245 244 255 247 249 250 264 256 252 258 257 262 267 271
258 256 248 243 239 236 236 234 233 235 235 233 234 232 232 235 234 235 236 241 242 242 240 241 244 246 246 248 249 261 257 255 257 258 268 265 271 269
260 255 250 247 241 237 234 233 235 234 234 237 236 234 233 233 233 234 235 236 239 242 243 244 245 243 247 251 252 255 252 255 257 259 260 262 263 267
260 256 243 241 242 242 237 236 234 235 233 234 237 237 235 234 233 234 234 236 238 239 243 245 246 248 249 250 252 255 257 258 259 262 260 261 268 266
258 273 247 234 237 237 238 235 234 235 232 234 235 236 237 235 236 236 236 234 238 240 242 243 244 247 249 250 250 254 256 257 255 257 260 265 267 266
249 242 227 230 232 229 233 234 233 234 234 233 233 234 236 237 238 237 237 236 236 239 241 243 244 246 247 249 250 252 254 256 258 260 261 264 266 268
240 226 222 216 221 225 225 230 231 230 231 232 233 233 236 236 238 237 238 239 239 241 240 241 243 245 247 248 249 251 253 254 256 258 260 261 263 264
208 214 210 212 218 220 220 223 227 224 226 227 228 230 232 233 235 236 237 238 240 241 243 243 243 244 245 247 249 250 251 254 255 256 257 259 261 263